Miscellaneous Local Product
Issued by NWS Hastings, NE

Home | Current Version | Previous Version | Graphics & Text | Print | Product List | Glossary On
Versions: 1 2 3 4 5 6 7 8 9 10 11 12 13 14 15 16 17 18 19 20 21 22 23 24 25 26 27 28 29 30 31 32 33 34 35 36 37 38 39 40 41 42 43 44 45 46 47 48 49 50
000
AXUS43 KGID 302302
MISGRI

GID CWA HOURLY WEATHER ROUNDUP
NATIONAL WEATHER SERVICE HASTINGS NE
600 PM CDT SUN AUG 30 2015

NOTE: "FAIR" INDICATES FEW OR NO CLOUDS BELOW 12,000 FEET WITH NO
SIGNIFICANT WEATHER AND/OR OBSTRUCTIONS TO VISIBILITY.

...SOUTH CENTRAL NEBRASKA...

CITY           SKY/WX    TMP DP  RH WIND       PRES   REMARKS
GRAND ISLAND   SUNNY     79  63  57 S12       29.97F
HASTINGS       SUNNY     79  63  57 SE9       29.97F
KEARNEY        SUNNY     81  61  50 SE13      29.96S
ORD            SUNNY     84  63  49 S12G21    29.91F
YORK           SUNNY     77  66  69 S12       29.97S
AURORA         SUNNY     78  66  68 S9        29.97F
LEXINGTON      SUNNY     87  61  40 SE16      29.93F
HOLDREGE       SUNNY     81  58  44 S13       29.96F
HEBRON         SUNNY     77  64  62 SE10      29.97F

...NEBRASKA PANHANDLE...

CITY           SKY/WX    TMP DP  RH WIND       PRES   REMARKS
CHADRON        SUNNY    101  38  11 S7        29.75F HX  95
ALLIANCE       SUNNY     97  37  12 S12       29.84F HX  92
SCOTTSBLUFF    SUNNY     95  51  22 E10       29.84F HX  92
SIDNEY         SUNNY     97  34  11 S13G22    29.90F HX  91

...WESTERN AND NORTH CENTRAL NEBRASKA...

CITY           SKY/WX    TMP DP  RH WIND       PRES   REMARKS
VALENTINE      CLOUDY    95  43  16 S24G35    29.80F HX  91
AINSWORTH      MOSUNNY   91  48  23 S16G22    29.85F
ONEILL         SUNNY     83  67  58 S16G23    29.89F
BROKEN BOW     SUNNY     86  61  42 S16G25    29.92F
IMPERIAL       SUNNY     93  38  14 S18G26    29.91F
NORTH PLATTE   SUNNY     91  41  17 S15       29.89F
MCCOOK         SUNNY     94  37  13 S17       29.91F HAZE

...EASTERN NEBRASKA...

CITY           SKY/WX    TMP DP  RH WIND       PRES   REMARKS
NORFOLK        SUNNY     76  67  73 S16       29.94F
TEKAMAH        SUNNY     74  67  78 S7        29.96F
COLUMBUS       SUNNY    N/A N/A N/A S8        29.96S
ALBION         SUNNY     76  63  63 S13G20    29.95F
OMAHA EPPLEY   MOSUNNY   76  66  71 S15       29.97F
OFFUTT AFB     SUNNY     76  67  75 S8        29.97F
MILLARD        SUNNY     76  68  76 SE9       29.98S
LINCOLN        SUNNY     77  67  71 S12       29.98F
NEBRASKA CITY  MOSUNNY   77  64  65 S7        29.99F
BEATRICE       SUNNY     77  67  70 SE8       29.98F
FALLS CITY     SUNNY     81  69  67 NE5       29.98F

...NORTHERN KANSAS...

CITY           SKY/WX    TMP DP  RH WIND       PRES   REMARKS
GOODLAND       SUNNY     89  40  17 S21       29.97F HAZE
HILL CITY      SUNNY     93  46  19 S9        29.94F HAZE
NORTON         CLEAR     88  39  18 SE14      29.93S
PHILLIPSBURG   SUNNY     90  55  31 E14       29.95F
SMITH CENTER   SUNNY     81  61  50 SE14      29.96F
HAYS           SUNNY     90  52  27 SE10G17   29.95S
RUSSELL        SUNNY     86  57  37 SE10      29.94F
CONCORDIA      SUNNY     76  65  68 SE13      29.97F
SALINA         MOSUNNY   83  65  54 SE12      29.96F
TOPEKA         PTSUNNY   82  70  66 E7        29.96F



USA.gov is the U.S. government's official web portal to all federal, state and local government web resources and services.